Location: Altoona
(40.5167°N, 78.4000°W)
Time: 05:13:01
(UTC-04:00)

Daily predictions for brighter satellites

Satellite Brightness Start Highest point End
(mag) Time Altitude Azimuth Time Altitude Azimuth Time Altitude Azimuth
ATLAS CENTAUR R/B 4.2 00:16:15 79° WSW 00:16:59 85° NW 00:40:54 10° NE
Cosmos 2278 Rocket 4.1 00:23:27 10° NNW 00:25:52 25° N 00:25:52 25° N
ATLAS 3B R/B 4.2 00:38:24 31° NE 00:38:24 31° NE 00:41:58 10° NE
Cosmos 2219 Rocket 4.3 01:17:15 22° N 01:17:15 22° N 01:19:21 10° N
SL-16 R/B 4.3 01:37:57 22° NNE 01:37:57 22° NNE 01:39:53 10° NNE
Cosmos 2237 Rocket 4.2 01:39:41 23° N 01:39:41 23° N 01:42:00 10° NNE
CZ-4C R/B 4.4 01:40:57 20° NE 01:40:57 20° NE 01:42:48 10° NE
Cosmos 2333 Rocket 4.2 01:45:35 23° NNW 01:45:35 23° NNW 01:48:09 10° N
ATLAS 3B R/B 4.1 02:25:38 32° NW 02:25:49 32° NW 02:32:21 10° NNE
Resurs 1-4 Rocket 4.5 02:41:13 10° NE 02:43:54 15° E 02:43:54 15° E
CZ-3A R/B 4.0 02:45:24 60° SSE 02:46:51 64° ESE 03:32:04 10° NE
Cosmos 2369 Rocket 3.6 02:48:54 10° NNW 02:52:13 34° N 02:52:13 34° N
Cosmos 1943 Rocket 3.9 03:00:49 10° N 03:05:46 30° ENE 03:08:54 18° ESE
SL-16 R/B 4.3 03:19:50 16° NW 03:19:50 16° NW 03:22:37 10° N
USA 234 3.9 03:15:37 10° ENE 03:21:30 42° ESE 03:21:30 42° ESE
CZ-4C R/B 3.9 03:26:08 24° NW 03:26:08 24° NW 03:30:58 10° NNE
IRS-1D 4.3 03:26:45 10° NNE 03:31:25 48° E 03:31:25 48° E
ARIANE 5 R/B 3.1 03:30:18 10° NNE 03:34:53 53° ENE 03:34:53 53° ENE
ATLAS 5 CENTAUR R/B 2.6 03:38:58 51° NE 03:38:58 51° NE 03:42:53 10° NE
NOSS 3-2 (A) 4.3 03:40:16 38° NW 03:40:22 38° NW 03:46:34 10° NNE
Cosmos 1733 Rocket 4.4 03:38:24 10° N 03:41:43 39° NE 03:41:43 39° NE
SL-16 R/B 2.7 03:41:16 52° SE 03:42:43 69° ENE 03:48:53 10° N
Cosmos 1709 Rocket 3.9 03:38:56 10° N 03:45:19 82° E 03:45:50 75° SE
CENTAUR R/B 2.6 03:47:14 59° SE 03:47:43 61° ESE 03:54:21 10° NE
ADEOS 4.0 03:49:13 10° N 03:53:28 54° NNW 03:53:28 54° NNW
NOSS 3-2 (C) 4.4 03:58:41 35° WNW 03:59:23 36° NW 04:05:33 10° NNE
CZ-2D R/B 2.0 03:55:26 10° NNE 04:00:43 75° ESE 04:00:54 74° SE
IRAS Rocket 4.5 04:02:06 10° N 04:07:20 53° WNW 04:07:20 53° WNW
Cosmos 2184 Rocket 4.5 04:10:01 10° N 04:16:21 61° E 04:22:35 10° SSE
EO 1 Del DPAF 3.9 04:19:42 51° N 04:19:42 51° N 04:22:42 10° N
SL-27 R/B 3.5 04:20:01 44° NNE 04:20:01 44° NNE 04:22:35 10° NNE
UNKNOWN OBJECT B 3.2 04:18:59 10° NNE 04:21:58 56° NNE 04:21:58 56° NNE
Resurs 1-4 Rocket 2.0 04:19:13 10° N 04:24:27 66° WNW 04:24:59 61° WSW
Cosmos 1943 4.5 04:28:04 25° WNW 04:28:22 25° NW 04:33:02 10° N
Cosmos 1862 3.7 04:25:06 10° N 04:29:02 60° E 04:30:08 42° SE
Okean O Rocket 2.5 04:26:02 10° NNE 04:30:22 48° E 04:32:24 28° SSE
Cosmos 2221 Rocket 4.5 04:29:08 26° SSE 04:31:16 46° E 04:35:31 10° NNE
Cosmos 1703 Rocket 4.2 04:30:10 31° SSE 04:32:03 54° E 04:36:26 10° NNE
Cosmos 1869 4.1 04:33:54 39° NW 04:33:54 39° NW 04:36:47 10° N
COSMOS 2406 3.1 04:37:42 44° SSW 04:39:38 81° WNW 04:45:25 10° NNE
Cosmos 1455 3.9 04:43:33 22° NW 04:43:33 22° NW 04:45:35 10° NNW
Sich 1 Rocket 3.5 04:41:39 10° NNW 04:46:01 65° W 04:46:53 51° SSW
Cosmos 1408 2.5 04:44:14 10° N 04:48:00 84° W 04:48:48 54° S
CZ-4B R/B 3.6 04:42:48 10° NNE 04:48:02 59° ESE 04:52:34 14° S
Cosmos 1943 Rocket 2.5 04:44:21 10° NW 04:49:36 40° WSW 04:50:12 39° WSW
Cosmos 2285 Rocket 3.9 04:43:25 10° NNW 04:49:51 76° WSW 04:56:12 10° S
MOZ.5/SAFIR/RUBIN 5/SL-8 3.7 04:45:30 10° SSE 04:50:08 85° ENE 04:54:48 10° NNW
Cosmos 1933 3.3 04:51:40 53° SW 04:52:22 65° W 04:56:28 10° N
IRS-1C Rocket 4.0 04:49:20 10° NNE 04:54:38 90° E 04:58:06 22° SSW
Cosmos 407 Rocket 3.8 04:51:35 20° S 04:55:09 65° ESE 05:00:23 10° NNE
Okean 1-7 3.3 04:54:53 17° S 04:58:06 65° E 05:02:27 10° NNE
SeaSat 1 2.4 04:53:38 10° SSE 04:58:34 86° ENE 05:03:31 10° NNW
Atlas Centaur 2 3.2 04:59:34 18° S 05:00:11 18° SSE 05:03:24 10° ESE
ERS-2 4.5 04:59:12 10° NW 05:00:05 12° NW 05:00:05 12° NW
USA 234 3.5 04:58:28 10° NE 05:04:52 58° NW 05:08:50 24° WSW
GPS 2-05 Rocket1 3.9 05:05:26 29° S 05:05:39 29° S 05:08:37 10° ESE
CZ-4B R/B 2.7 05:02:04 10° NNE 05:05:47 81° E 05:08:16 21° S
Aureole 3 Rocket 3.6 05:05:33 10° SSW 05:12:16 75° W 05:17:01 10° N
ARIANE 5 R/B 4.1 05:10:33 10° NNW 05:14:07 19° WNW 05:15:13 18° W
Cosmos 1825 2.7 05:11:09 10° NNW 05:14:40 36° W 05:15:22 33° WSW
Cosmos 1656 Rocket 3.7 05:09:29 10° NNW 05:14:44 52° WSW 05:19:57 10° S
Okean 2 Rocket 3.0 05:14:09 10° N 05:18:40 76° W 05:23:10 10° S
PSLV R/B 4.2 05:15:46 10° N 05:19:20 41° WNW 05:20:51 27° WSW
Abrixas rocket 2.4 05:19:35 15° NW 05:22:14 73° NNE 05:25:35 10° ESE
ATLAS 5 CENTAUR R/B 3.8 05:20:32 12° WNW 05:23:10 17° NW 05:26:42 10° N
ADEOS Rocket 3.8 05:17:10 10° NNE 05:24:59 75° ESE 05:32:37 10° S
Nadezhda 1 Rocket 4.3 05:21:21 14° SSW 05:26:32 50° WNW 05:32:43 10° N
SL-16 R/B 3.8 05:26:22 18° W 05:26:52 18° W 05:30:55 10° NW
PSLV R/B 3.9 05:28:59 26° WSW 05:30:21 37° SSW 05:33:32 10° SE
Cosmos 1782 Rocket 3.9 05:27:55 10° NNW 05:32:00 41° W 05:36:03 10° SSW
PAYLOAD B 4.4 05:28:36 10° N 05:33:57 52° WNW 05:39:15 10° SW
Meteor 1-31 Rocket 4.3 05:34:01 10° NNE 05:37:35 37° E 05:41:08 10° SSE
CENTAUR R/B 3.7 05:34:26 14° W 05:38:52 30° NW 05:44:57 10° NNE
AVUM R/B 4.1 05:37:18 21° WSW 05:38:53 33° WNW 05:41:57 10° N
CZ-2D R/B 3.9 05:37:22 10° NNW 05:40:07 14° WNW 05:42:14 12° W
COSMOS 2487 3.5 05:44:02 16° WSW 05:46:18 30° WNW 05:49:33 10° N
Meteor 1-25 Rocket 4.2 05:41:20 10° N 05:46:56 89° E 05:52:31 10° S
BREEZE-M DEB (TANK) 3.5 05:45:01 17° WSW 05:47:00 58° NNW 05:52:36 10° ENE
Cosmos 2181 Rocket 4.0 05:40:39 10° S 05:47:04 78° W 05:53:29 10° N
Meteor 1-20 Rocket 4.4 05:45:41 10° N 05:51:25 84° E 05:57:14 10° S
Cosmos 1295 Rocket 4.4 05:46:58 10° N 05:53:07 82° W 05:59:17 10° S
COSMO-SKYMED 1 4.5 05:52:56 10° SE 05:56:53 35° ENE 06:00:51 10° N
Thor Agena Rocket 4.1 05:54:13 10° SSW 05:58:57 37° W 06:03:47 10° NNW
Cosmos 2154 Rocket 4.5 05:54:55 10° NNW 06:00:44 40° W 06:06:34 10° SSW
Cosmos 1023 Rocket 4.4 05:56:07 10° SSW 06:01:12 82° WNW 06:06:20 10° NNE
Cosmos 1954 Rocket 4.2 05:56:46 10° SW 06:01:50 55° WNW 06:06:58 10° N
USA 129 2.8 06:04:10 13° W 06:04:10 13° W 06:04:56 10° WNW
Cosmos 1356 3.4 06:01:57 10° NNW 06:05:30 77° W 06:09:01 10° S
Okean O Rocket 3.3 06:03:32 10° NNW 06:06:21 17° WNW 06:09:09 10° WSW
Cosmos 1400 Rocket 3.0 06:05:23 10° N 06:09:17 73° E 06:13:08 10° SSE
Meteor PRIRODA 4.0 06:06:05 10° N 06:09:43 48° WNW 06:13:21 10° SSW
Cosmos 2278 3.7 06:04:37 10° NNW 06:10:19 70° WSW 06:15:59 10° SSE
USA 229 DEB 4.4 06:03:45 10° SSW 06:10:29 59° ESE 06:17:19 10° NE
USA 229 4.4 06:03:52 10° SSW 06:10:35 58° ESE 06:17:25 10° NE
CZ-4B R/B 4.1 06:08:03 10° N 06:12:35 84° W 06:16:59 10° SSW
ADEOS II 2.3 06:08:02 10° N 06:13:07 51° WNW 06:18:11 10° SW
Meteor 2-10 Rocket 4.0 06:08:49 10° SSW 06:14:24 49° WNW 06:19:54 10° N
Timation 2 Rocket 4.0 06:08:16 10° SSW 06:14:31 84° WNW 06:20:35 10° NNE
